www.pogodaiklimat.ru

ПОГОДА в Уитфилде, NH

  • Прогноз погоды в Уитфилде
  • Монитор погоды в Уитфилде
  • Климат в Уитфилде

АРХИВ ПОГОДЫ в Уитфилде

Время (UTC), дата Ветер
(напр.,м/с)
 
Видим.   Явления Облачность Т
(С)
Тd
(С)
f
(%)
Тe
(С)
Тes
(С)
Комфортность

P
(гПа)

Po
(гПа)
Тmin
(С)
Tmax
(С)
R
(мм)
SD
(см)
07:17 17.06   11 км    2/2 60 м  +6.1  +5.0  93  +5  +5      975.1         
07:48 17.06   3 км  дымка  8/8 30 м  +6.0  +5.0  93  +5  +5      974.7         
07:50 17.06   2 км  дымка  8/8 30 м  +6.0  +5.0  93  +5  +5      974.7         
07:52 17.06   1 км  дымка  8/8 30 м  +5.6  +5.0  96  +4  +4    1013.9  974.7         
08:11 17.06   2 км  дымка  10/10 30 м  +6.1  +5.0  93  +5  +5      975.1         
08:14 17.06   1 км  дымка  10/10 30 м  +6.1  +5.0  93  +5  +5      975.1         
08:52 17.06   400 м  туман  ?/?  +6.1  +5.0  93  +5  +5    1014.7  975.7         
09:06 17.06   2 км  дымка  10/10 30 м  +6.1  +5.6  97  +5  +5      975.4         
09:10 17.06   5 км  дымка  8/8 30 м  +6.1  +5.6  97  +5  +5      975.7         
09:25 17.06   6 км  дымка  5/5 30 м  +6.7  +6.1  96  +6  +6      975.7         
09:27 17.06   2 км  дымка  5/5 30 м  +6.7  +6.1  96  +6  +6      975.7         
09:30 17.06   1 км  дымка  ?/?  +7.2  +6.7  97  +6  +6      975.7         
09:38 17.06   2 км  дымка  5/5 60 м  +7.2  +7.2  100  +6  +6      975.7         
09:41 17.06   5 км  дымка  2/2 60 м  +7.8  +7.2  96  +7  +7      975.7         
09:52 17.06   16 км    2/2 60 м  +7.8  +7.2  96  +7  +7    1014.9  976.0         
10:52 17.06   16 км    ясно  +12.2  +10.0  86  +12  +15    1015.2  976.4  +5.6  +12.2     
11:52 17.06   16 км    ясно  +16.1  +11.1  72  +16  +23    1015.5  976.7         
12:52 17.06 нст  16 км    8/8 870 м  +17.8  +10.0  60  +18  +20    1015.9  977.0         
13:52 17.06 СЗ  16 км    5/5 1170 м  +19.4  +10.0  55  +20  +24    1015.5  976.7         
14:52 17.06 З  4
{7} 
16 км    5/5 1380 м  +20.0  +8.3  47  +21  +26  комфорт  1015.4  976.4         
17:52 18.06   16 км    8/8 1650 м
[средняя] 
+21.7  +10.0  47  +23  +28  комфорт  1014.1  975.4         
18:52 18.06 нст  16 км    8/2 1650 м
[средняя] 
+22.2  +11.1  49  +24  +29  комфорт  1013.7  975.1         
19:52 18.06 нст  16 км    5/0 2250 м
[средняя] 
+22.8  +11.1  48  +25  +33  комфорт  1013.1  974.4         
20:52 18.06 нст  16 км    ясно  +22.8  +11.1  48  +25  +33  комфорт  1012.8  974.1         
21:52 18.06 Ю  16 км    ясно  +22.2  +10.6  48  +24  +28  комфорт  1012.4  973.8         
22:52 18.06 ЮЗ  16 км    ясно  +20.6  +11.7  57  +23  +25  комфорт  1012.3  973.4  +20.6  +23.3     
23:52 18.06   16 км    ясно  +16.7  +12.2  75  +17  +17    1012.4  973.8         
00:52 19.06   16 км    ясно  +13.9  +11.1  83  +14  +14    1013.0  974.1         
01:52 19.06   16 км    ясно  +11.7  +10.0  89  +11  +11    1013.3  974.4         
02:52 19.06   16 км    ясно  +10.0  +8.9  93  +9  +9    1013.1  974.1         
03:52 19.06   16 км    ясно  +9.4  +8.3  93  +9  +9    1013.1  974.1         
04:52 19.06   16 км    ясно  +8.9  +7.2  89  +8  +8    1013.1  974.1  +8.3  +20.6     
05:52 19.06   16 км    ясно  +8.3  +6.7  90  +7  +7    1012.6  973.8         
06:52 19.06   16 км    ясно  +7.2  +5.6  90  +6  +6    1012.1  973.4         
07:52 19.06   16 км    ясно  +7.8  +6.7  93  +7  +7    1011.9  973.1         
08:52 19.06   16 км    ясно  +7.8  +6.7  93  +7  +7    1012.2  973.4         
09:52 19.06   16 км    ясно  +10.0  +8.3  89  +9  +10    1012.2  973.4         
10:52 19.06   16 км    2/0 2700 м
[средняя] 
+15.6  +11.7  78  +15  +18    1012.2  973.8  +7.2  +15.6     
11:52 19.06   16 км    ясно  +18.9  +12.2  65  +20  +27    1011.9  973.1         
12:52 19.06   16 км    8/0 2700 м
[средняя] 
+22.2  +13.9  59  +25  +31  комфорт  1011.1  972.5         
13:52 19.06   16 км    ясно  +23.3  +13.9  55  +27  +44  душно  1010.7  972.1         
14:52 19.06 нст  16 км    ясно  +24.4  +14.4  54  +27  +41  жарко  1010.5  971.8         
15:52 19.06 Ю  16 км    5/5 1380 м  +25.0  +12.8  47  +27  +35  жарко  1009.6  971.1         
16:52 19.06 ЮЗ  16 км    10/2 1800 м
[средняя] 
+25.0  +11.7  43  +26  +30  жарко  1009.1  970.5  +15.6  +26.7     
17:52 19.06 ЮЗ  16 км    10/0 2700 м
[средняя] 
+26.7  +13.3  44  +29  +34  жарко  1008.5  970.2         
18:52 19.06 СЗ  16 км  слабый дождь  10/2 1650 м
[средняя] 
+21.1  +15.6  71  +24  +27  комфорт  1009.0  970.2         
19:52 19.06 СВ  16 км    8/2 1800 м
[средняя] 
+23.3  +16.1  64  +28  +32  душно  1008.4  969.8         
20:52 19.06 нст  16 км    8/8 1500 м  +24.4  +14.4  54  +27  +29  жарко  1008.1  969.5         

 

Местоположение метеостанции Mount Washington Regional Airport: широта 44.3661 долгота -71.5525 высота над уровнем моря 327 м.

В архиве по умолчанию представлена погода в Уитфилде за последние 1-2 суток. Обновление информации о фактической погоде в базе происходит ежечасно! Архивные данные за месяц целиком и за предыдущие месяцы Вы можете получить, выбрав интересующий диапазон дат из раскрывающегося списка и нажав кнопку "Ввод!".

Внимание! Архив погоды МЕТАР в базе сайта хранится не более 60 дней. Нет смысла пытаться выбрать более раннюю дату.

Внимание! Время в таблицах - всемирное. Для получения местного времени необходимо прибавить поправку, которая в Уитфилде равна -5 ч.

Ветер - указаны скорость ветра в м/с и направление, откуда дует ветер: С - северный, СВ - северо-восточный, В - восточный, ЮВ - юго-восточный, Ю - южный, ЮЗ - юго-западный, З - западный, СЗ - северо-западный.
Видимость - горизонтальная дальность видимости в метрах или километрах. При видимости от 1 до 10 км при отсутствии осадков обычно наблюдается дымка, при ухудшении видимости до 1 км и менее - туман. В сухую погоду видимость может ухудшаться дымом, пылью или мглою.
Атмосферные явления - указаны явления, наблюдавшиеся в указанный момент времени.
Облачность - указаны через наклонную черту верхняя и нижняя облачность в баллах и высота нижней границы облаков в метрах. Внимание: облачность, как и прочие метеорологические величины в США измеряются автоматическими метеостанциями. Указанные значения в баллах носят условный характер и показывают процент времени, в течение которого, в среднем, лазерный луч высотомера отражался от облаков обратно.
T - Температура воздуха - температура, измеренная на высоте 2 м над землей.
Td - Температура точки росы - температура, при понижении до которой содержащийся в воздухе водяной пар достигнет насыщения.
f - Относительная влажность воздуха - влажноcть воздуха, измеренная на высоте 2 м над землей.
Te - Эффективная температура - температура, которую ощущает одетый по сезону человек в тени. Характеристика душности погоды. При расчете учитывается влияние влажности воздуха и скорости ветра на теплоощущения человека.
Tes - Эффективная температура на солнце - температура, которую ощущает человек, с поправкой на солнечный нагрев. Характеристика знойности погоды. Зависит от высоты солнца над горизонтом, облачности и скорости ветра. Ночью, в пасмурную погоду, а также при ветре 12 м/с и более поправка равна нулю.
P - Атмосферное давление - приведенное к уровню моря атмосферное давление.
Po - Атмосферное давление - измеренное на уровне метеостанции атмосферное давление.
Tmin - Минимальная температура - минимум температуры воздуха на высоте 2 м над землей.
Tmax - Максимальная температура - максимум температуры воздуха на высоте 2 м над землей.
R - Количество осадков - Количество выпавших осадков за 3 или 6 часов, мм.
SD - Снежный покров - Высота снежного покрова, см.